Location: Bad Dürkheim
(49.4618°N, 8.1724°E)
Time: 15:10:39
(UTC+00:00)

Cosmos 1703 Rocket - Pass Details

Date: 14 June 2025
Orbit: 600 x 626 km, 82.5° (Epoch: 19 July)

Event Time Altitude Azimuth Distance (km) Brightness Sun altitude
Exits shadow 22:59:22 33° 158° (SSE) 1,026 4.1 -17.0°
Maximum altitude 23:01:04 56° 95° (E) 719 3.8 -17.0°
Drops below altitude 10° 23:05:18 10° 18° (NNE) 1,957 7.2 -17.1°
Sets 23:07:33 0° 14° (NNE) 2,863 8.4 -17.1°
